Date_Time,Julian_Date,Latitude,Longitude,Instrument_Depth,U,V,Speed,Direction
(yyyy-mm-dd hh:mn:ss UTC),(JD),(+ deg. North),(+ deg. East),(m),(cm/s),(cm/s),(cm/s),(deg True)
1979-02-14 11:00:00 UTC,2443918.958333,28.8669,-94.6981,0100,-10.83,-1.91,11.0000,260.0000
1979-02-14 12:00:00 UTC,2443919.000000,28.8669,-94.6981,0100,-10.97,-0.77,11.0000,266.0000
1979-02-14 13:00:00 UTC,2443919.041667,28.8669,-94.6981,0100,-9.51,3.09,10.0000,288.0000
1979-02-14 14:00:00 UTC,2443919.083333,28.8669,-94.6981,0100,-8.19,5.74,10.0000,305.0000
1979-02-14 15:00:00 UTC,2443919.125000,28.8669,-94.6981,0100,-8.17,7.36,11.0000,312.0000
1979-02-14 16:00:00 UTC,2443919.166667,28.8669,-94.6981,0100,-7.36,8.17,11.0000,318.0000
1979-02-14 17:00:00 UTC,2443919.208333,28.8669,-94.6981,0100,-5.66,5.66,8.0000,315.0000
1979-02-14 18:00:00 UTC,2443919.250000,28.8669,-94.6981,0100,-6.24,3.18,7.0000,297.0000
1979-02-14 19:00:00 UTC,2443919.291667,28.8669,-94.6981,0100,-5.74,1.75,6.0000,287.0000
1979-02-14 20:00:00 UTC,2443919.333333,28.8669,-94.6981,0100,-4.94,0.78,5.0000,279.0000
1979-02-14 21:00:00 UTC,2443919.375000,28.8669,-94.6981,0100,-5.00,-0.00,5.0000,270.0000
1979-02-14 22:00:00 UTC,2443919.416667,28.8669,-94.6981,0100,-4.94,0.78,5.0000,279.0000
1979-02-14 23:00:00 UTC,2443919.458333,28.8669,-94.6981,0100,-4.85,1.21,5.0000,284.0000
1979-02-14 23:30:00 UTC,2443919.479167,28.8669,-94.6981,0100,-4.49,2.19,5.0000,296.0000
1979-02-15 01:00:00 UTC,2443919.541667,28.8669,-94.6981,0100,-4.49,2.19,5.0000,296.0000
1979-02-15 02:00:00 UTC,2443919.583333,28.8669,-94.6981,0100,-4.05,2.94,5.0000,306.0000
1979-02-15 03:00:00 UTC,2443919.625000,28.8669,-94.6981,0100,-4.46,4.01,6.0000,312.0000
1979-02-15 04:00:00 UTC,2443919.666667,28.8669,-94.6981,0100,-5.39,2.63,6.0000,296.0000
1979-02-15 05:00:00 UTC,2443919.708333,28.8669,-94.6981,0100,-6.73,1.93,7.0000,286.0000
1979-02-15 06:00:00 UTC,2443919.750000,28.8669,-94.6981,0100,-7.79,1.80,8.0000,283.0000
1979-02-15 07:00:00 UTC,2443919.791667,28.8669,-94.6981,0100,-7.98,0.56,8.0000,274.0000
1979-02-15 08:00:00 UTC,2443919.833333,28.8669,-94.6981,0100,-7.99,0.42,8.0000,273.0000
1979-02-15 09:00:00 UTC,2443919.875000,28.8669,-94.6981,0100,-9.99,0.35,10.0000,272.0000
1979-02-15 10:00:00 UTC,2443919.916667,28.8669,-94.6981,0100,-8.00,0.14,8.0000,271.0000
1979-02-15 11:00:00 UTC,2443919.958333,28.8669,-94.6981,0100,-6.91,1.10,7.0000,279.0000
1979-02-15 12:00:00 UTC,2443920.000000,28.8669,-94.6981,0100,-6.34,2.96,7.0000,295.0000
1979-02-15 13:00:00 UTC,2443920.041667,28.8669,-94.6981,0100,-3.61,6.00,7.0000,329.0000
1979-02-15 14:00:00 UTC,2443920.083333,28.8669,-94.6981,0100,-1.05,9.95,10.0000,354.0000
1979-02-15 15:00:00 UTC,2443920.125000,28.8669,-94.6981,0100,-0.73,6.96,7.0000,354.0000
1979-02-15 16:00:00 UTC,2443920.166667,28.8669,-94.6981,0100,-0.28,8.00,8.0000,358.0000
1979-02-15 17:00:00 UTC,2443920.208333,28.8669,-94.6981,0100,3.00,7.42,8.0000,22.0000
1979-02-15 18:00:00 UTC,2443920.250000,28.8669,-94.6981,0100,4.24,2.65,5.0000,58.0000
1979-02-15 19:00:00 UTC,2443920.291667,28.8669,-94.6981,0100,2.60,-1.50,3.0000,120.0000
1979-02-15 20:00:00 UTC,2443920.333333,28.8669,-94.6981,0100,1.17,-3.83,4.0000,163.0000
1979-02-15 21:00:00 UTC,2443920.375000,28.8669,-94.6981,0100,0.21,-6.00,6.0000,178.0000
1979-02-15 22:00:00 UTC,2443920.416667,28.8669,-94.6981,0100,-0.61,-6.97,7.0000,185.0000
1979-02-15 23:00:00 UTC,2443920.458333,28.8669,-94.6981,0100,-1.45,-5.82,6.0000,194.0000
1979-02-15 23:30:00 UTC,2443920.479167,28.8669,-94.6981,0100,-2.80,-4.15,5.0000,214.0000
1979-02-16 01:00:00 UTC,2443920.541667,28.8669,-94.6981,0100,-3.11,-2.52,4.0000,231.0000
1979-02-16 02:00:00 UTC,2443920.583333,28.8669,-94.6981,0100,-3.99,-0.21,4.0000,267.0000
1979-02-16 03:00:00 UTC,2443920.625000,28.8669,-94.6981,0100,-3.39,2.12,4.0000,302.0000
1979-02-16 04:00:00 UTC,2443920.666667,28.8669,-94.6981,0100,-3.15,2.46,4.0000,308.0000
1979-02-16 05:00:00 UTC,2443920.708333,28.8669,-94.6981,0100,-4.21,5.59,7.0000,323.0000
1979-02-16 06:00:00 UTC,2443920.750000,28.8669,-94.6981,0100,-6.91,-1.10,7.0000,261.0000
1979-02-16 07:00:00 UTC,2443920.791667,28.8669,-94.6981,0100,-9.43,-5.67,11.0000,239.0000
1979-02-16 08:00:00 UTC,2443920.833333,28.8669,-94.6981,0100,-9.81,-8.53,13.0000,229.0000
1979-02-16 09:00:00 UTC,2443920.875000,28.8669,-94.6981,0100,-13.40,-10.47,17.0000,232.0000
1979-02-16 10:00:00 UTC,2443920.916667,28.8669,-94.6981,0100,-14.42,-9.01,17.0000,238.0000
1979-02-16 11:00:00 UTC,2443920.958333,28.8669,-94.6981,0100,-18.27,-8.13,20.0000,246.0000
1979-02-16 12:00:00 UTC,2443921.000000,28.8669,-94.6981,0100,-18.54,-7.49,20.0000,248.0000
1979-02-16 13:00:00 UTC,2443921.041667,28.8669,-94.6981,0100,-17.73,-3.13,18.0000,260.0000
1979-02-16 14:00:00 UTC,2443921.083333,28.8669,-94.6981,0100,-15.91,-1.67,16.0000,264.0000
1979-02-16 15:00:00 UTC,2443921.125000,28.8669,-94.6981,0100,-13.92,1.46,14.0000,276.0000
1979-02-16 16:00:00 UTC,2443921.166667,28.8669,-94.6981,0100,-15.00,0.26,15.0000,271.0000
1979-02-16 17:00:00 UTC,2443921.208333,28.8669,-94.6981,0100,-15.96,-1.12,16.0000,266.0000
1979-02-16 18:00:00 UTC,2443921.250000,28.8669,-94.6981,0100,-15.80,-2.50,16.0000,261.0000
1979-02-16 19:00:00 UTC,2443921.291667,28.8669,-94.6981,0100,-18.07,-5.87,19.0000,252.0000
1979-02-16 20:00:00 UTC,2443921.333333,28.8669,-94.6981,0100,-21.38,-10.90,24.0000,243.0000
1979-02-16 21:00:00 UTC,2443921.375000,28.8669,-94.6981,0100,-25.03,-10.11,27.0000,248.0000
1979-02-16 22:00:00 UTC,2443921.416667,28.8669,-94.6981,0100,-24.95,-12.71,28.0000,243.0000
1979-02-16 23:00:00 UTC,2443921.458333,28.8669,-94.6981,0100,-25.84,-13.17,29.0000,243.0000
1979-02-16 23:30:00 UTC,2443921.479167,28.8669,-94.6981,0100,-27.62,-11.72,30.0000,247.0000
1979-02-17 01:00:00 UTC,2443921.541667,28.8669,-94.6981,0100,-25.37,-9.23,27.0000,250.0000
1979-02-17 02:00:00 UTC,2443921.583333,28.8669,-94.6981,0100,-25.53,-8.79,27.0000,251.0000
1979-02-17 03:00:00 UTC,2443921.625000,28.8669,-94.6981,0100,-25.95,-7.44,27.0000,254.0000
1979-02-17 04:00:00 UTC,2443921.666667,28.8669,-94.6981,0100,-26.41,-5.61,27.0000,258.0000
1979-02-17 05:00:00 UTC,2443921.708333,28.8669,-94.6981,0100,-26.85,-2.82,27.0000,264.0000
1979-02-17 06:00:00 UTC,2443921.750000,28.8669,-94.6981,0100,-24.76,-3.48,25.0000,262.0000
1979-02-17 07:00:00 UTC,2443921.791667,28.8669,-94.6981,0100,-27.28,-6.30,28.0000,257.0000
1979-02-17 08:00:00 UTC,2443921.833333,28.8669,-94.6981,0100,-27.25,-9.92,29.0000,250.0000
1979-02-17 09:00:00 UTC,2443921.875000,28.8669,-94.6981,0100,-29.13,-10.60,31.0000,250.0000
1979-02-17 10:00:00 UTC,2443921.916667,28.8669,-94.6981,0100,-27.62,-11.72,30.0000,247.0000
1979-02-17 11:00:00 UTC,2443921.958333,28.8669,-94.6981,0100,-27.88,-7.99,29.0000,254.0000
1979-02-17 12:00:00 UTC,2443922.000000,28.8669,-94.6981,0100,-28.84,-8.27,30.0000,254.0000
1979-02-17 13:00:00 UTC,2443922.041667,28.8669,-94.6981,0100,-27.39,-5.82,28.0000,258.0000
1979-02-17 14:00:00 UTC,2443922.083333,28.8669,-94.6981,0100,-25.90,-2.27,26.0000,265.0000
1979-02-17 15:00:00 UTC,2443922.125000,28.8669,-94.6981,0100,-24.81,-3.05,25.0000,263.0000
1979-02-17 16:00:00 UTC,2443922.166667,28.8669,-94.6981,0100,-23.87,-2.51,24.0000,264.0000
1979-02-17 17:00:00 UTC,2443922.208333,28.8669,-94.6981,0100,-26.74,-3.76,27.0000,262.0000
1979-02-17 18:00:00 UTC,2443922.250000,28.8669,-94.6981,0100,-28.64,-4.54,29.0000,261.0000
1979-02-17 19:00:00 UTC,2443922.291667,28.8669,-94.6981,0100,-29.54,-5.21,30.0000,260.0000
1979-02-17 20:00:00 UTC,2443922.333333,28.8669,-94.6981,0100,-31.56,-9.65,33.0000,253.0000
1979-02-17 21:00:00 UTC,2443922.375000,28.8669,-94.6981,0100,-33.83,-12.31,36.0000,250.0000
1979-02-17 22:00:00 UTC,2443922.416667,28.8669,-94.6981,0100,-35.48,-13.62,38.0000,249.0000
1979-02-17 23:00:00 UTC,2443922.458333,28.8669,-94.6981,0100,-36.16,-14.61,39.0000,248.0000
1979-02-17 23:30:00 UTC,2443922.479167,28.8669,-94.6981,0100,-32.22,-13.68,35.0000,247.0000
1979-02-18 01:00:00 UTC,2443922.541667,28.8669,-94.6981,0100,-30.81,-14.37,34.0000,245.0000
1979-02-18 02:00:00 UTC,2443922.583333,28.8669,-94.6981,0100,-28.25,-15.02,32.0000,242.0000
1979-02-18 03:00:00 UTC,2443922.625000,28.8669,-94.6981,0100,-31.19,-15.89,35.0000,243.0000
1979-02-18 04:00:00 UTC,2443922.666667,28.8669,-94.6981,0100,-28.84,-8.27,30.0000,254.0000
1979-02-18 05:00:00 UTC,2443922.708333,28.8669,-94.6981,0100,-26.41,-5.61,27.0000,258.0000
1979-02-18 06:00:00 UTC,2443922.750000,28.8669,-94.6981,0100,-24.99,-7.17,26.0000,254.0000
1979-02-18 07:00:00 UTC,2443922.791667,28.8669,-94.6981,0100,-22.69,-7.81,24.0000,251.0000
1979-02-18 08:00:00 UTC,2443922.833333,28.8669,-94.6981,0100,-22.95,-7.02,24.0000,253.0000
1979-02-18 09:00:00 UTC,2443922.875000,28.8669,-94.6981,0100,-20.80,-7.16,22.0000,251.0000
1979-02-18 10:00:00 UTC,2443922.916667,28.8669,-94.6981,0100,-22.83,-7.42,24.0000,252.0000
1979-02-18 11:00:00 UTC,2443922.958333,28.8669,-94.6981,0100,-20.80,-7.16,22.0000,251.0000
1979-02-18 12:00:00 UTC,2443923.000000,28.8669,-94.6981,0100,-21.73,-3.44,22.0000,261.0000
1979-02-18 13:00:00 UTC,2443923.041667,28.8669,-94.6981,0100,-17.93,-1.57,18.0000,265.0000
1979-02-18 14:00:00 UTC,2443923.083333,28.8669,-94.6981,0100,-16.87,-2.07,17.0000,263.0000
1979-02-18 15:00:00 UTC,2443923.125000,28.8669,-94.6981,0100,-16.94,-1.48,17.0000,265.0000
1979-02-18 16:00:00 UTC,2443923.166667,28.8669,-94.6981,0100,-16.00,-0.28,16.0000,269.0000
1979-02-18 17:00:00 UTC,2443923.208333,28.8669,-94.6981,0100,-10.63,2.85,11.0000,285.0000
1979-02-18 18:00:00 UTC,2443923.250000,28.8669,-94.6981,0100,-10.83,1.91,11.0000,280.0000
1979-02-18 19:00:00 UTC,2443923.291667,28.8669,-94.6981,0100,-7.98,0.56,8.0000,274.0000
1979-02-18 20:00:00 UTC,2443923.333333,28.8669,-94.6981,0100,-7.96,-0.84,8.0000,264.0000
1979-02-18 21:00:00 UTC,2443923.375000,28.8669,-94.6981,0100,-7.79,-1.80,8.0000,257.0000
1979-02-18 22:00:00 UTC,2443923.416667,28.8669,-94.6981,0100,-9.66,-2.59,10.0000,255.0000
1979-02-18 23:00:00 UTC,2443923.458333,28.8669,-94.6981,0100,-10.46,-3.40,11.0000,252.0000
1979-02-18 23:30:00 UTC,2443923.479167,28.8669,-94.6981,0100,-9.00,-0.16,9.0000,269.0000
1979-02-19 01:00:00 UTC,2443923.541667,28.8669,-94.6981,0100,-10.99,-0.38,11.0000,268.0000
1979-02-19 02:00:00 UTC,2443923.583333,28.8669,-94.6981,0100,-11.98,-0.63,12.0000,267.0000
1979-02-19 03:00:00 UTC,2443923.625000,28.8669,-94.6981,0100,-12.99,-0.45,13.0000,268.0000
1979-02-19 04:00:00 UTC,2443923.666667,28.8669,-94.6981,0100,-11.93,1.25,12.0000,276.0000
1979-02-19 05:00:00 UTC,2443923.708333,28.8669,-94.6981,0100,-12.76,2.48,13.0000,281.0000
1979-02-19 06:00:00 UTC,2443923.750000,28.8669,-94.6981,0100,-13.58,3.39,14.0000,284.0000
1979-02-19 07:00:00 UTC,2443923.791667,28.8669,-94.6981,0100,-12.61,3.14,13.0000,284.0000
1979-02-19 08:00:00 UTC,2443923.833333,28.8669,-94.6981,0100,-11.93,1.25,12.0000,276.0000
1979-02-19 09:00:00 UTC,2443923.875000,28.8669,-94.6981,0100,-11.00,-0.00,11.0000,270.0000
1979-02-19 10:00:00 UTC,2443923.916667,28.8669,-94.6981,0100,-12.80,-2.26,13.0000,260.0000
1979-02-19 11:00:00 UTC,2443923.958333,28.8669,-94.6981,0100,-14.55,-3.63,15.0000,256.0000
1979-02-19 12:00:00 UTC,2443924.000000,28.8669,-94.6981,0100,-17.02,-5.86,18.0000,251.0000
1979-02-19 13:00:00 UTC,2443924.041667,28.8669,-94.6981,0100,-19.86,-6.84,21.0000,251.0000
1979-02-19 14:00:00 UTC,2443924.083333,28.8669,-94.6981,0100,-19.70,-3.47,20.0000,260.0000
1979-02-19 15:00:00 UTC,2443924.125000,28.8669,-94.6981,0100,-19.85,-2.44,20.0000,263.0000
1979-02-19 16:00:00 UTC,2443924.166667,28.8669,-94.6981,0100,-18.77,-2.97,19.0000,261.0000
1979-02-19 17:00:00 UTC,2443924.208333,28.8669,-94.6981,0100,-18.90,-1.99,19.0000,264.0000
1979-02-19 18:00:00 UTC,2443924.250000,28.8669,-94.6981,0100,-17.82,-2.51,18.0000,262.0000
1979-02-19 19:00:00 UTC,2443924.291667,28.8669,-94.6981,0100,-19.70,-3.47,20.0000,260.0000
1979-02-19 20:00:00 UTC,2443924.333333,28.8669,-94.6981,0100,-19.49,-4.50,20.0000,257.0000
1979-02-19 21:00:00 UTC,2443924.375000,28.8669,-94.6981,0100,-20.46,-4.72,21.0000,257.0000
1979-02-19 22:00:00 UTC,2443924.416667,28.8669,-94.6981,0100,-22.69,-7.81,24.0000,251.0000
1979-02-19 23:00:00 UTC,2443924.458333,28.8669,-94.6981,0100,-23.34,-8.96,25.0000,249.0000
1979-02-19 23:30:00 UTC,2443924.479167,28.8669,-94.6981,0100,-25.77,-10.94,28.0000,247.0000
1979-02-20 01:00:00 UTC,2443924.541667,28.8669,-94.6981,0100,-26.89,-10.86,29.0000,248.0000
1979-02-20 02:00:00 UTC,2443924.583333,28.8669,-94.6981,0100,-24.67,-10.98,27.0000,246.0000
1979-02-20 03:00:00 UTC,2443924.625000,28.8669,-94.6981,0100,-23.93,-10.16,26.0000,247.0000
1979-02-20 04:00:00 UTC,2443924.666667,28.8669,-94.6981,0100,-24.43,-8.89,26.0000,250.0000
1979-02-20 05:00:00 UTC,2443924.708333,28.8669,-94.6981,0100,-18.71,-3.30,19.0000,260.0000
1979-02-20 06:00:00 UTC,2443924.750000,28.8669,-94.6981,0100,-17.99,-0.63,18.0000,268.0000
1979-02-20 07:00:00 UTC,2443924.791667,28.8669,-94.6981,0100,-16.83,-2.37,17.0000,262.0000
1979-02-20 08:00:00 UTC,2443924.833333,28.8669,-94.6981,0100,-18.86,-2.32,19.0000,263.0000
1979-02-20 09:00:00 UTC,2443924.875000,28.8669,-94.6981,0100,-15.98,-0.84,16.0000,267.0000
1979-02-20 10:00:00 UTC,2443924.916667,28.8669,-94.6981,0100,-10.99,-0.38,11.0000,268.0000
1979-02-20 11:00:00 UTC,2443924.958333,28.8669,-94.6981,0100,-11.74,-2.49,12.0000,258.0000
1979-02-20 12:00:00 UTC,2443925.000000,28.8669,-94.6981,0100,-14.67,-3.12,15.0000,258.0000
1979-02-20 13:00:00 UTC,2443925.041667,28.8669,-94.6981,0100,-14.73,-6.25,16.0000,247.0000
1979-02-20 14:00:00 UTC,2443925.083333,28.8669,-94.6981,0100,-14.38,-7.01,16.0000,244.0000
1979-02-20 15:00:00 UTC,2443925.125000,28.8669,-94.6981,0100,-14.38,-7.01,16.0000,244.0000
1979-02-20 16:00:00 UTC,2443925.166667,28.8669,-94.6981,0100,-12.79,-5.69,14.0000,246.0000
1979-02-20 17:00:00 UTC,2443925.208333,28.8669,-94.6981,0100,-11.20,-4.30,12.0000,249.0000
1979-02-20 18:00:00 UTC,2443925.250000,28.8669,-94.6981,0100,-9.40,-3.42,10.0000,250.0000
1979-02-20 19:00:00 UTC,2443925.291667,28.8669,-94.6981,0100,-9.27,-3.75,10.0000,248.0000
1979-02-20 20:00:00 UTC,2443925.333333,28.8669,-94.6981,0100,-6.66,-2.16,7.0000,252.0000
1979-02-20 21:00:00 UTC,2443925.375000,28.8669,-94.6981,0100,-6.85,-1.46,7.0000,258.0000
1979-02-20 22:00:00 UTC,2443925.416667,28.8669,-94.6981,0100,-8.99,-4.38,10.0000,244.0000
1979-02-20 23:00:00 UTC,2443925.458333,28.8669,-94.6981,0100,-11.14,-6.70,13.0000,239.0000
1979-02-20 23:30:00 UTC,2443925.479167,28.8669,-94.6981,0100,-12.44,-8.39,15.0000,236.0000
1979-02-21 01:00:00 UTC,2443925.541667,28.8669,-94.6981,0100,-13.57,-8.48,16.0000,238.0000
1979-02-21 02:00:00 UTC,2443925.583333,28.8669,-94.6981,0100,-13.71,-8.24,16.0000,239.0000
1979-02-21 03:00:00 UTC,2443925.625000,28.8669,-94.6981,0100,-13.24,-7.04,15.0000,242.0000
1979-02-21 04:00:00 UTC,2443925.666667,28.8669,-94.6981,0100,-11.69,-2.70,12.0000,257.0000
1979-02-21 05:00:00 UTC,2443925.708333,28.8669,-94.6981,0100,-10.63,2.85,11.0000,285.0000
1979-02-21 06:00:00 UTC,2443925.750000,28.8669,-94.6981,0100,-7.19,6.95,10.0000,314.0000
1979-02-21 07:00:00 UTC,2443925.791667,28.8669,-94.6981,0100,-0.24,7.00,7.0000,358.0000
1979-02-21 08:00:00 UTC,2443925.833333,28.8669,-94.6981,0100,-0.85,6.95,7.0000,353.0000
1979-02-21 09:00:00 UTC,2443925.875000,28.8669,-94.6981,0100,-0.19,11.00,11.0000,359.0000
1979-02-21 10:00:00 UTC,2443925.916667,28.8669,-94.6981,0100,0.31,8.99,9.0000,2.0000
1979-02-21 11:00:00 UTC,2443925.958333,28.8669,-94.6981,0100,0.87,4.92,5.0000,10.0000
1979-02-21 12:00:00 UTC,2443926.000000,28.8669,-94.6981,0100,-0.42,0.91,1.0000,335.0000
1979-02-21 13:00:00 UTC,2443926.041667,28.8669,-94.6981,0100,-0.87,0.48,1.0000,299.0000
1979-02-21 14:00:00 UTC,2443926.083333,28.8669,-94.6981,0100,-3.99,-0.28,4.0000,266.0000
1979-02-21 15:00:00 UTC,2443926.125000,28.8669,-94.6981,0100,-3.28,-2.29,4.0000,235.0000
1979-02-21 16:00:00 UTC,2443926.166667,28.8669,-94.6981,0100,-2.83,-2.83,4.0000,225.0000
1979-02-21 17:00:00 UTC,2443926.208333,28.8669,-94.6981,0100,-4.24,-4.24,6.0000,225.0000
1979-02-21 18:00:00 UTC,2443926.250000,28.8669,-94.6981,0100,-3.06,-2.57,4.0000,230.0000
1979-02-21 19:00:00 UTC,2443926.291667,28.8669,-94.6981,0100,-3.78,-1.30,4.0000,251.0000
1979-02-21 20:00:00 UTC,2443926.333333,28.8669,-94.6981,0100,-2.80,-1.08,3.0000,249.0000
1979-02-21 21:00:00 UTC,2443926.375000,28.8669,-94.6981,0100,-2.99,0.21,3.0000,274.0000
1979-02-21 22:00:00 UTC,2443926.416667,28.8669,-94.6981,0100,-4.00,0.14,4.0000,272.0000
1979-02-21 23:00:00 UTC,2443926.458333,28.8669,-94.6981,0100,-4.76,-1.55,5.0000,252.0000
1979-02-21 23:30:00 UTC,2443926.479167,28.8669,-94.6981,0100,-8.02,-4.09,9.0000,243.0000
1979-02-22 01:00:00 UTC,2443926.541667,28.8669,-94.6981,0100,-7.55,-6.56,10.0000,229.0000
1979-02-22 02:00:00 UTC,2443926.583333,28.8669,-94.6981,0100,-11.32,-9.84,15.0000,229.0000
1979-02-22 03:00:00 UTC,2443926.625000,28.8669,-94.6981,0100,-11.15,-10.04,15.0000,228.0000
1979-02-22 04:00:00 UTC,2443926.666667,28.8669,-94.6981,0100,-10.23,-10.97,15.0000,223.0000
1979-02-22 05:00:00 UTC,2443926.708333,28.8669,-94.6981,0100,-10.50,-5.82,12.0000,241.0000
1979-02-22 06:00:00 UTC,2443926.750000,28.8669,-94.6981,0100,-10.88,-5.07,12.0000,245.0000
1979-02-22 07:00:00 UTC,2443926.791667,28.8669,-94.6981,0100,-13.16,-4.79,14.0000,250.0000
1979-02-22 08:00:00 UTC,2443926.833333,28.8669,-94.6981,0100,-10.97,-0.77,11.0000,266.0000
1979-02-22 09:00:00 UTC,2443926.875000,28.8669,-94.6981,0100,-8.69,2.33,9.0000,285.0000
1979-02-22 10:00:00 UTC,2443926.916667,28.8669,-94.6981,0100,-7.65,2.34,8.0000,287.0000
1979-02-22 11:00:00 UTC,2443926.958333,28.8669,-94.6981,0100,-6.95,0.85,7.0000,277.0000
1979-02-22 12:00:00 UTC,2443927.000000,28.8669,-94.6981,0100,-6.69,-2.05,7.0000,253.0000
1979-02-22 13:00:00 UTC,2443927.041667,28.8669,-94.6981,0100,-5.44,-4.41,7.0000,231.0000
1979-02-22 14:00:00 UTC,2443927.083333,28.8669,-94.6981,0100,-6.69,-7.43,10.0000,222.0000
1979-02-22 15:00:00 UTC,2443927.125000,28.8669,-94.6981,0100,-4.85,-8.75,10.0000,209.0000
1979-02-22 16:00:00 UTC,2443927.166667,28.8669,-94.6981,0100,-7.04,-13.24,15.0000,208.0000
1979-02-22 17:00:00 UTC,2443927.208333,28.8669,-94.6981,0100,-6.79,-12.24,14.0000,209.0000
1979-02-22 18:00:00 UTC,2443927.250000,28.8669,-94.6981,0100,-9.66,-8.70,13.0000,228.0000
1979-02-22 19:00:00 UTC,2443927.291667,28.8669,-94.6981,0100,-6.86,-4.12,8.0000,239.0000
1979-02-22 20:00:00 UTC,2443927.333333,28.8669,-94.6981,0100,-8.91,-4.54,10.0000,243.0000
1979-02-22 21:00:00 UTC,2443927.375000,28.8669,-94.6981,0100,-7.79,-1.80,8.0000,257.0000
1979-02-22 22:00:00 UTC,2443927.416667,28.8669,-94.6981,0100,-8.95,-0.94,9.0000,264.0000
1979-02-22 23:00:00 UTC,2443927.458333,28.8669,-94.6981,0100,-9.99,-0.52,10.0000,267.0000
1979-02-22 23:30:00 UTC,2443927.479167,28.8669,-94.6981,0100,-7.90,-1.25,8.0000,261.0000
1979-02-23 01:00:00 UTC,2443927.541667,28.8669,-94.6981,0100,-8.57,-5.15,10.0000,239.0000
1979-02-23 02:00:00 UTC,2443927.583333,28.8669,-94.6981,0100,-11.87,-7.42,14.0000,238.0000
1979-02-23 03:00:00 UTC,2443927.625000,28.8669,-94.6981,0100,-18.19,-10.50,21.0000,240.0000
1979-02-23 04:00:00 UTC,2443927.666667,28.8669,-94.6981,0100,-17.82,-9.08,20.0000,243.0000
1979-02-23 05:00:00 UTC,2443927.708333,28.8669,-94.6981,0100,-18.17,-5.56,19.0000,253.0000
1979-02-23 06:00:00 UTC,2443927.750000,28.8669,-94.6981,0100,-15.96,-1.12,16.0000,266.0000
1979-02-23 07:00:00 UTC,2443927.791667,28.8669,-94.6981,0100,-11.20,4.30,12.0000,291.0000
1979-02-23 08:00:00 UTC,2443927.833333,28.8669,-94.6981,0100,-9.06,7.87,12.0000,311.0000
1979-02-23 09:00:00 UTC,2443927.875000,28.8669,-94.6981,0100,-7.42,11.87,14.0000,328.0000
1979-02-23 10:00:00 UTC,2443927.916667,28.8669,-94.6981,0100,-4.50,11.13,12.0000,338.0000
1979-02-23 11:00:00 UTC,2443927.958333,28.8669,-94.6981,0100,-5.63,10.60,12.0000,332.0000
1979-02-23 12:00:00 UTC,2443928.000000,28.8669,-94.6981,0100,-6.29,7.77,10.0000,321.0000
1979-02-23 13:00:00 UTC,2443928.041667,28.8669,-94.6981,0100,-5.44,2.54,6.0000,295.0000
1979-02-23 14:00:00 UTC,2443928.083333,28.8669,-94.6981,0100,-6.93,-4.00,8.0000,240.0000
1979-02-23 15:00:00 UTC,2443928.125000,28.8669,-94.6981,0100,-6.69,-7.43,10.0000,222.0000
1979-02-23 16:00:00 UTC,2443928.166667,28.8669,-94.6981,0100,-7.07,-8.43,11.0000,220.0000
1979-02-23 17:00:00 UTC,2443928.208333,28.8669,-94.6981,0100,-7.05,-9.71,12.0000,216.0000
1979-02-23 18:00:00 UTC,2443928.250000,28.8669,-94.6981,0100,-8.70,-9.66,13.0000,222.0000
1979-02-23 19:00:00 UTC,2443928.291667,28.8669,-94.6981,0100,-8.57,-5.15,10.0000,239.0000
1979-02-23 20:00:00 UTC,2443928.333333,28.8669,-94.6981,0100,-5.85,-5.46,8.0000,227.0000
1979-02-23 21:00:00 UTC,2443928.375000,28.8669,-94.6981,0100,-6.02,-6.69,9.0000,222.0000
1979-02-23 22:00:00 UTC,2443928.416667,28.8669,-94.6981,0100,-8.91,-4.54,10.0000,243.0000
1979-02-23 23:00:00 UTC,2443928.458333,28.8669,-94.6981,0100,-8.83,-4.69,10.0000,242.0000
1979-02-23 23:30:00 UTC,2443928.479167,28.8669,-94.6981,0100,-12.72,-7.95,15.0000,238.0000
1979-02-24 01:00:00 UTC,2443928.541667,28.8669,-94.6981,0100,-19.92,-11.50,23.0000,240.0000
1979-02-24 02:00:00 UTC,2443928.583333,28.8669,-94.6981,0100,-18.58,-16.73,25.0000,228.0000
1979-02-24 03:00:00 UTC,2443928.625000,28.8669,-94.6981,0100,-23.04,-20.74,31.0000,228.0000
1979-02-24 04:00:00 UTC,2443928.666667,28.8669,-94.6981,0100,-22.23,-23.02,32.0000,224.0000
1979-02-24 05:00:00 UTC,2443928.708333,28.8669,-94.6981,0100,-19.45,-20.14,28.0000,224.0000
1979-02-24 06:00:00 UTC,2443928.750000,28.8669,-94.6981,0100,-18.74,-20.81,28.0000,222.0000
1979-02-24 07:00:00 UTC,2443928.791667,28.8669,-94.6981,0100,-18.65,-15.10,24.0000,231.0000
1979-02-24 08:00:00 UTC,2443928.833333,28.8669,-94.6981,0100,-21.20,-13.25,25.0000,238.0000
1979-02-24 09:00:00 UTC,2443928.875000,28.8669,-94.6981,0100,-20.35,-12.72,24.0000,238.0000
1979-02-24 10:00:00 UTC,2443928.916667,28.8669,-94.6981,0100,-23.93,-10.16,26.0000,247.0000
1979-02-24 11:00:00 UTC,2443928.958333,28.8669,-94.6981,0100,-24.47,-11.41,27.0000,245.0000
1979-02-24 12:00:00 UTC,2443929.000000,28.8669,-94.6981,0100,-15.26,-9.54,18.0000,238.0000
1979-02-24 13:00:00 UTC,2443929.041667,28.8669,-94.6981,0100,-18.91,-6.51,20.0000,251.0000
1979-02-24 14:00:00 UTC,2443929.083333,28.8669,-94.6981,0100,-18.26,-5.24,19.0000,254.0000
1979-02-24 15:00:00 UTC,2443929.125000,28.8669,-94.6981,0100,-19.73,-7.18,21.0000,250.0000
1979-02-24 16:00:00 UTC,2443929.166667,28.8669,-94.6981,0100,-20.95,1.46,21.0000,274.0000
1979-02-24 17:00:00 UTC,2443929.208333,28.8669,-94.6981,0100,-18.97,0.99,19.0000,273.0000
1979-02-24 18:00:00 UTC,2443929.250000,28.8669,-94.6981,0100,-19.02,-17.73,26.0000,227.0000
1979-02-24 19:00:00 UTC,2443929.291667,28.8669,-94.6981,0100,-18.39,-15.43,24.0000,230.0000
1979-02-24 20:00:00 UTC,2443929.333333,28.8669,-94.6981,0100,-13.93,-9.75,17.0000,235.0000
1979-02-24 21:00:00 UTC,2443929.375000,28.8669,-94.6981,0100,-13.86,-1.95,14.0000,262.0000
1979-02-24 22:00:00 UTC,2443929.416667,28.8669,-94.6981,0100,-8.56,2.78,9.0000,288.0000
1979-02-24 23:00:00 UTC,2443929.458333,28.8669,-94.6981,0100,-3.24,2.35,4.0000,306.0000
1979-02-24 23:30:00 UTC,2443929.479167,28.8669,-94.6981,0100,-3.19,2.41,4.0000,307.0000
1979-02-25 01:00:00 UTC,2443929.541667,28.8669,-94.6981,0100,3.02,-2.62,4.0000,131.0000
1979-02-25 02:00:00 UTC,2443929.583333,28.8669,-94.6981,0100,6.78,-4.24,8.0000,122.0000
1979-02-25 03:00:00 UTC,2443929.625000,28.8669,-94.6981,0100,9.66,-8.70,13.0000,132.0000
1979-02-25 04:00:00 UTC,2443929.666667,28.8669,-94.6981,0100,10.71,-11.89,16.0000,138.0000
1979-02-25 05:00:00 UTC,2443929.708333,28.8669,-94.6981,0100,13.20,-13.67,19.0000,136.0000
1979-02-25 06:00:00 UTC,2443929.750000,28.8669,-94.6981,0100,13.16,-12.28,18.0000,133.0000
1979-02-25 07:00:00 UTC,2443929.791667,28.8669,-94.6981,0100,15.56,-10.90,19.0000,125.0000
1979-02-25 08:00:00 UTC,2443929.833333,28.8669,-94.6981,0100,18.79,-6.84,20.0000,110.0000
1979-02-25 09:00:00 UTC,2443929.875000,28.8669,-94.6981,0100,22.47,-10.96,25.0000,116.0000
1979-02-25 10:00:00 UTC,2443929.916667,28.8669,-94.6981,0100,26.31,-6.07,27.0000,103.0000